Tracking 33747 objects as of 12-Apr-2026
HD Live streaming from Space Station
objects crossing your sky now

STARLINK-36957

Track STARLINK-36957 now!
10-day predictions
STARLINK-36957 is classified as:


NORAD ID: 67989
Int'l Code: 2026-039D
Perigee: 489.1 km
Apogee: 491.2 km
Inclination: 43.0 °
Period: 94.3 minutes
Semi major axis: 6861 km
RCS: Unknown
Launch date: February 27, 2026
Source: United States (US)
Launch site: AIR FORCE WESTERN TEST RANGE (AFWTR)
Your satellite tracking list
Your tracking list is empty




NASA's NSSDC Master Catalog

Two Line Element Set (TLE):
1 67989U 26039D   26101.72882659  .00012444  00000-0  46088-3 0  9990
2 67989  43.0020 222.5748 0001547 266.5853  93.4821 15.27584490  6752
Source of the keplerian elements: AFSPC